This is the latest recevied weather packets stored in our database for station/object SR6WVX. If no packets are shown the sender has not sent any weather packets the latest 10 day(s).
| Time | Temp. | Humidity | Pressure | Rain* | Wind** | Luminosity | Snow |
|---|---|---|---|---|---|---|---|
| 1777442363 | 7.78° C | 45% | 1023.4 hPa | 0 mm | - | - | - |
| 1777442063 | 7.78° C | 47% | 1023.5 hPa | 0 mm | - | - | - |
| 1777441763 | 7.78° C | 47% | 1023.4 hPa | 0 mm | - | - | - |
| 1777441462 | 7.78° C | 47% | 1023.4 hPa | 0 mm | - | - | - |
| 1777441162 | 7.22° C | 46% | 1023.4 hPa | 0 mm | - | - | - |
| 1777440862 | 7.22° C | 47% | 1023.2 hPa | 0 mm | - | - | - |
| 1777440561 | 7.22° C | 49% | 1023.3 hPa | 0 mm | - | - | - |
| 1777440261 | 6.67° C | 50% | 1022.9 hPa | 0 mm | - | - | - |
| 1777439961 | 6.67° C | 51% | 1023 hPa | 0 mm | - | - | - |
| 1777439661 | 6.67° C | 50% | 1022.9 hPa | 0 mm | - | - | - |
| 1777439360 | 6.67° C | 52% | 1023 hPa | 0 mm | - | - | - |
| 1777439060 | 6.11° C | 54% | 1022.8 hPa | 0 mm | - | - | - |
| 1777438760 | 6.11° C | 54% | 1022.7 hPa | 0 mm | - | - | - |
| 1777438460 | 5.56° C | 58% | 1022.5 hPa | 0 mm | - | - | - |
| 1777438159 | 5° C | 60% | 1022.6 hPa | 0 mm | - | - | - |
| 1777437859 | 4.44° C | 61% | 1022.7 hPa | 0 mm | - | - | - |
| 1777437559 | 3.89° C | 63% | 1022.5 hPa | 0 mm | - | - | - |
| 1777437259 | 3.33° C | 65% | 1022.6 hPa | 0 mm | - | - | - |
| 1777436958 | 2.78° C | 68% | 1022.6 hPa | 0 mm | - | - | - |
| 1777436658 | 1.11° C | 71% | 1022.4 hPa | 0 mm | - | - | - |
| 1777436358 | 1.11° C | 72% | 1022.6 hPa | 0 mm | - | - | - |
| 1777436057 | 1.11° C | 72% | 1022.5 hPa | 0 mm | - | - | - |
| 1777435757 | 0.56° C | 72% | 1022.4 hPa | 0 mm | - | - | - |
| 1777435457 | 0.56° C | 72% | 1022.5 hPa | 0 mm | - | - | - |
| 1777435157 | 0.56° C | 72% | 1022.5 hPa | 0 mm | - | - | - |
* Rain latest hour (hover to see other rain measurements)
** Current wind speed in m/s (hover to see current wind gust speed)